Home > Weather > Pointe-Noire > Past weeks

Flag for Congo Weather for the Past 2 Weeks in Pointe-Noire, Congo

Now
82 °F

Passing clouds.


Feels Like: 91 °F
Forecast: 78 / 87 °F
Wind: 5 mph from Southwest

Location: Pointe Airport-Noire

Current Time: May 4, 2016 at 8:34:45 PM

Latest Report: May 4, 2016 at 7:00 PM


Visibility: N/A

Pressure: 29.86 "Hg

Humidity: 84%

Dew Point: 77 °F

Location of Pointe-NoireLocation

Historic Weather in Pointe-Noire — Graph

°F

Pointe-Noire Temperature Yesterday

Maximum temperature yesterday: 88 °F (at 11:00 AM)
Minimum temperature yesterday: 79 °F (at 4:00 AM)
Average temperature yesterday: 83 °F

High & Low Weather Summary for the Past Weeks

 TemperatureHumidityPressure
High90 °F (Apr 21, 12:00 PM)100% (Apr 20, 10:00 AM)29.98 "Hg (Apr 20, 10:00 AM)
Low75 °F (Apr 20, 12:00 PM)62% (May 2, 10:00 AM)29.71 "Hg (Apr 26, 5:00 PM)
Average83 °F85%29.83 "Hg
* Reported Apr 19 7:00 PM — May 4 7:00 PM, Pointe-Noire, Weather by CustomWeather, © 2016

Note: Actual official high and low records may vary slightly from our data, if they occured in-between our weather recording intervals... More about our weather records

Advertising

Pointe-Noire Weather History for the Previous 24 Hours

Scroll right to see more
 ConditionsComfort  
Time TempWeatherWind HumidityBarometerVisibility
7:00 PM
Wed, May 4
82 °FPassing clouds.5 mph84%29.86 "HgN/A
6:00 PM82 °FPartly sunny.6 mph84%29.83 "HgN/A
5:00 PM82 °FPartly sunny.7 mph84%29.83 "HgN/A
4:00 PM84 °FScattered clouds.7 mph79%29.83 "HgN/A
3:00 PM84 °FPassing clouds.7 mph74%29.83 "HgN/A
2:00 PM84 °FScattered clouds.5 mph79%29.86 "HgN/A
1:00 PM86 °FPassing clouds.12 mph75%29.89 "HgN/A
12:00 PM84 °FPassing clouds.9 mph79%29.92 "HgN/A
11:00 AM84 °FBroken clouds.8 mph79%29.92 "HgN/A
10:00 AM84 °FBroken clouds.7 mph79%29.92 "HgN/A
9:00 AM82 °FPartly sunny.5 mph84%29.92 "Hg5 mi
8:00 AM79 °FPartly sunny.6 mph94%29.89 "Hg4 mi
7:00 AM79 °FBroken clouds.No wind94%29.89 "Hg4 mi
6:00 AM79 °FPartly cloudy.No wind94%29.86 "Hg4 mi
5:00 AM79 °FPassing clouds.2 mph94%29.86 "Hg4 mi
4:00 AM79 °FPassing clouds.No wind94%29.86 "Hg4 mi
3:00 AM79 °FPassing clouds.No wind94%29.86 "Hg4 mi
2:00 AM79 °FPassing clouds.No wind94%29.86 "Hg4 mi
1:00 AM79 °FPassing clouds.5 mph94%29.86 "Hg5 mi
12:00 AM81 °FPassing clouds.3 mph89%29.89 "Hg5 mi
11:00 PM
Tue, May 3
81 °FPassing clouds.5 mph89%29.89 "Hg5 mi
10:00 PM82 °FThunderstorms. Passing clouds.6 mph84%29.89 "Hg5 mi
9:00 PM82 °FThunderstorms. Passing clouds.7 mph89%29.89 "Hg5 mi
8:00 PM82 °FPassing clouds.7 mph84%29.86 "Hg5 mi
Weather by CustomWeather, © 2016

See weather overviewHow to use our weather pages